Location: Unspecified
(54.8786°N, 0.0000°E)
Time: 04:22:15
(UTC+00:00)

Meteor 1-24 - Visible Passes

Search period start: 04 April 2026 00:00
Search period end: 14 April 2026 00:00
Orbit: 827 x 878 km, 81.3° (Epoch: 29 March)

Date Brightness Start Highest point End Pass type
(mag) Time Alt. Az. Time Alt. Az. Time Alt. Az.
4 Apr 7.6 20:04:29 10° NW 20:07:45 16° W 20:11:03 10° WSW visible
5 Apr 7.6 19:52:59 10° NW 19:56:27 17° W 19:59:56 10° WSW visible
6 Apr 7.6 19:41:29 10° NW 19:45:09 18° W 19:48:48 10° WSW visible
7 Apr 7.6 19:30:01 10° NW 19:33:49 19° W 19:37:39 10° SW visible
